Helicity
23 24 25 36 55 54 35 20 6 -0 -6 -2 -3 3 1 -1 -0 3 2 -1 -1 9 18 22 25 30 31 32 26 32 37 44
14 20 23 28 36 29 19 5 -9 -6 -9 -7 3 1 1 3 4 2 -2 -1 2 6 8 11 14 10 14 22 23 21 23 28
-1 6 13 33 18 -4 5 2 -4 -13 -15 -6 4 -2 4 7 3 -2 -2 1 8 5 -0 3 3 3 2 2 6 1 14 22
-20 2 14 2 -16 -10 -10 -16 -25 -27 -23 -9 3 9 15 15 15 8 11 14 25 20 18 18 21 18 12 11 4 6 9 13
-46 -19 -23 -24 -27 -25 -32 -23 -26 -18 -9 -3 14 25 29 29 37 41 43 45 56 59 55 51 53 42 29 24 19 14 20 22
-53 -54 -40 -49 -37 -16 -14 -8 -3 -3 -0 21 35 35 34 29 47 63 75 75 89 95 97 94 92 77 59 54 54 41 36 35
-44 -40 -69 -70 -57 -31 -6 -2 4 17 19 43 66 65 57 63 74 98 119 109 125 130 125 127 116 104 90 70 62 64 66 71
-2 -4 -17 -27 -23 -11 -18 -2 8 11 30 53 70 80 85 102 140 163 168 145 135 139 136 136 127 105 89 81 64 52 61 86
52 74 69 57 57 46 21 -1 16 48 55 95 118 127 144 152 170 185 173 188 207 188 166 146 139 108 91 74 58 44 57 94
194 182 169 194 172 100 40 56 88 126 151 168 180 178 180 200 209 203 209 195 186 158 117 119 133 115 103 72 57 51 85 113
371 303 296 256 273 30 62 137 180 185 179 177 186 190 214 212 209 241 199 179 115 129 109 116 134 124 114 98 108 113 132 148
470 407 379 263 193 230 207 174 161 124 125 114 118 117 126 168 165 141 172 185 172 165 152 152 134 123 128 132 145 137 173 224
343 309 251 197 119 75 85 65 46 76 84 90 96 104 125 134 140 149 151 156 151 145 102 96 86 101 60 65 30 45 126 158
115 83 65 30 22 15 32 30 51 55 40 65 92 115 116 116 136 158 162 133 120 99 94 77 65 82 81 70 138 161 163 170
9 -12 -10 9 42 50 50 61 67 72 68 64 64 95 103 107 127 142 141 109 102 76 83 96 91 75 116 107 160 181 146 138
-32 -26 -0 2 6 31 50 70 73 69 91 105 103 138 153 150 164 159 125 87 99 86 100 98 122 143 142 163 161 162 112 63
-16 23 41 43 57 67 67 65 82 91 123 140 139 167 187 184 170 138 115 106 98 83 59 50 61 66 81 96 112 124 117 99
-1 34 71 71 89 99 108 119 129 161 155 139 158 173 165 143 134 132 116 87 42 16 19 43 75 103 101 85 73 66 59 81
76 86 81 122 142 166 188 198 179 171 147 147 161 158 131 94 104 92 76 49 54 64 73 84 111 133 91 83 89 101 125 126
97 93 144 172 141 163 168 169 160 151 133 131 130 133 114 89 89 109 111 105 94 93 102 89 84 80 88 112 135 144 165 165
Wind_Speed
12 10 15 19 22 23 24 26 27 28 30 32 34 35 38 39 40 42 44 44 45 47 48 49 49 50 51 51 51 49 48 47
8 12 16 20 22 24 24 24 25 27 29 31 33 34 36 38 39 41 43 43 45 48 49 50 51 52 53 53 53 51 50 49
9 14 18 20 22 23 24 24 25 26 28 29 32 33 34 36 39 40 42 43 45 47 49 50 52 53 54 55 54 54 54 52
22 19 20 21 22 22 23 23 23 24 25 28 29 31 33 34 36 38 41 44 45 48 49 51 51 52 55 57 57 57 56 56
26 21 20 21 20 20 21 22 21 22 23 25 28 31 32 33 35 39 41 44 46 48 51 51 51 55 58 59 60 61 61 62
25 22 20 19 19 19 18 18 19 21 24 25 28 30 34 35 35 38 42 45 47 48 48 50 53 56 58 59 60 62 64 65
24 20 17 17 18 18 18 19 22 23 28 27 28 32 36 36 37 39 43 46 48 49 50 52 54 56 57 60 63 65 68 68
15 15 17 20 21 27 28 30 32 32 34 34 32 34 38 41 44 45 46 48 49 50 53 56 59 62 66 67 68 70 72 72
13 14 17 25 27 32 36 40 40 43 37 34 37 40 43 44 46 48 51 51 53 55 57 59 64 68 73 74 74 76 74 75
18 15 15 22 29 35 39 46 42 38 36 39 41 43 43 45 47 52 52 55 56 58 63 66 70 73 76 76 78 78 79 72
15 16 17 19 24 45 41 39 44 42 42 44 45 45 46 47 51 52 55 57 61 66 68 73 79 81 82 82 81 81 74 67
15 18 21 33 31 36 37 40 42 43 46 46 46 46 47 49 50 53 58 66 71 74 75 76 78 80 86 81 84 76 65 62
19 21 30 27 30 37 40 42 44 45 46 47 48 50 50 52 56 60 66 72 74 75 76 80 79 82 80 86 79 63 59 67
27 27 28 27 30 32 36 38 41 45 47 51 51 51 53 56 61 64 67 70 72 75 78 81 77 80 85 88 90 83 67 72
30 30 29 30 32 35 39 40 45 50 53 53 54 53 54 57 59 62 66 67 72 74 77 81 84 76 74 77 89 92 95 72
30 30 31 33 34 39 43 46 50 50 51 51 54 57 59 61 63 64 66 69 75 77 77 77 76 84 76 68 70 79 93 101
29 33 35 39 40 42 46 49 50 52 54 55 57 60 61 62 62 64 68 71 73 74 75 75 74 76 78 77 77 78 75 83
29 33 37 40 40 45 49 52 56 59 62 62 62 62 62 60 61 65 68 69 71 70 72 73 72 70 68 70 71 74 78 80
34 38 38 42 46 49 54 56 60 64 68 69 67 66 64 62 64 68 69 68 68 67 69 69 66 67 66 67 66 69 70 75
38 37 42 45 48 53 55 60 65 68 68 69 65 64 64 64 66 68 68 66 66 66 67 66 62 64 65 65 69 69 68 69
Wind_Direction
56 21 32 38 42 44 53 54 56 57 55 52 47 42 38 34 29 26 21 18 16 15 14 12 8 3 360 357 354 353 350 347
23 14 19 36 40 57 56 55 50 50 53 51 45 40 35 25 22 20 16 13 11 7 5 2 359 356 355 353 350 349 345 341
335 29 41 43 51 63 62 57 60 60 51 43 38 36 30 22 15 11 10 9 6 2 358 357 355 351 348 346 345 343 340 340
88 67 60 61 59 60 55 56 58 56 49 41 35 25 20 17 14 9 5 1 0 356 353 351 350 348 344 341 341 337 335 333
104 78 71 69 56 54 57 56 49 40 34 29 25 20 15 10 7 2 359 357 355 352 349 347 345 341 339 337 333 331 330 325
97 84 74 63 46 50 43 38 26 20 11 20 17 11 6 3 358 355 355 353 351 351 351 348 344 341 339 337 336 333 330 326
107 82 54 25 9 10 12 5 359 4 356 11 8 2 358 359 356 354 352 350 348 345 344 343 342 342 341 338 335 332 328 325
86 46 13 3 356 348 341 336 331 337 341 350 355 355 353 351 351 350 348 346 344 342 339 338 336 334 331 332 332 330 327 323
355 359 360 354 351 340 333 324 324 323 343 351 351 350 348 348 347 346 344 343 340 337 335 334 330 329 326 326 327 326 326 324
336 346 3 2 5 351 341 330 339 354 359 358 354 350 352 349 346 343 341 340 338 336 332 330 329 327 325 326 324 324 323 323
349 350 349 345 344 345 353 1 352 358 359 358 358 355 353 349 345 344 341 340 334 333 330 327 324 323 322 322 322 321 321 322
357 353 353 329 350 2 12 11 10 9 4 2 1 358 354 350 348 344 339 333 330 329 328 328 327 325 322 321 321 320 321 322
353 346 338 351 359 3 0 359 3 8 6 2 358 353 351 348 343 338 335 332 331 331 329 327 326 326 323 321 322 322 320 319
3 9 13 15 9 10 5 5 4 1 0 358 357 354 351 347 341 338 336 334 333 332 331 328 327 328 323 321 317 315 319 319
30 27 25 21 15 9 4 6 360 352 348 349 350 351 348 345 343 340 337 336 334 333 331 329 325 326 327 322 317 312 314 316
26 25 16 9 6 357 351 351 349 348 347 346 346 345 343 341 339 338 337 335 333 331 330 329 327 322 324 323 320 316 312 309
10 4 360 355 355 351 349 348 349 349 347 345 342 341 341 341 340 339 337 335 334 333 331 329 327 324 321 320 319 317 314 310
354 353 349 353 354 351 350 349 347 344 343 341 340 340 340 340 340 339 338 337 335 334 333 331 328 327 325 323 320 317 315 312
345 345 351 353 349 349 347 347 345 343 340 339 338 339 340 339 339 337 336 336 335 334 333 332 330 327 326 324 322 320 317 314
339 342 346 347 345 344 344 343 342 342 341 340 339 339 338 338 336 335 334 334 333 332 332 331 330 328 326 325 323 321 321 318